#timestamp,LO_Frequency,Hit,StdDev 
1602599135.2,286047014.3,P
1602599155.0,286047013.9,P
1602599155.9,286047013.9,P
1602599175.8,286047011.4,Y
1602599195.6,286046995.1,P
1602599215.5,286046998.0,N
1602599235.3,286046996.2,N
1602599255.1,286046993.3,N
1602599275.9,286046995.9,N
1602599295.7,286046995.6,N
1602599315.5,286046995.8,N
1602599335.4,286046996.5,N
1602599355.2,286046998.7,N
1602599375.0,286047001.2,N
1602599376.0,286047001.2,N
1602599395.8,286046998.9,N
1602599415.6,286046996.5,N
1602599435.5,286046997.6,N
1602599455.3,286046995.2,N
1602599475.1,286046995.5,N
1602599495.9,286046997.6,N
1602599515.7,286046995.1,N
1602599535.6,286046997.9,N
1602599555.4,286046997.0,N
1602599575.2,286046999.3,N
1602599595.1,286046996.1,N
1602599596.0,286046996.1,N
1602599615.8,286046993.6,N
1602599635.6,286046993.7,N
1602599655.5,286046993.7,N
1602599675.3,286046994.5,N
1602599695.2,286046994.5,N
1602599715.9,286046994.8,N
1602599735.7,286046993.5,N
1602599755.6,286046995.2,N
1602599775.4,286046995.3,N
1602599795.2,286046996.1,N
1602599815.1,286046992.2,Y
1602599816.0,286046992.2,P
1602599835.8,286046995.0,N
1602599855.7,286046995.8,N
1602599875.5,286046997.6,N
1602599895.3,286046995.4,N
1602599915.2,286046996.8,N
1602599935.0,286046995.0,Y
1602599935.9,286046995.0,P
1602599955.7,286046998.1,P
1602599975.6,286047000.2,N
1602599995.4,286047000.9,N
1602600015.3,286047002.8,N
1602600035.1,286047002.2,N
1602600036.0,286047002.2,N
1602600055.8,286046999.8,N
1602600075.7,286047001.0,N
1602600095.5,286046998.5,N
1602600115.3,286046999.8,N
1602600135.2,286047002.2,N
1602600155.0,286047006.0,N
1602600155.9,286047006.0,N
1602600175.8,286047006.0,N
1602600195.6,286047002.9,N
1602600215.4,286047007.5,N
1602600235.3,286047006.7,N
1602600255.1,286047006.7,N
1602600275.8,286047004.8,N
1602600295.7,286047005.4,N
1602600315.5,286047007.6,N
1602600335.4,286047005.5,N
1602600355.2,286047002.9,N
1602600375.0,286047003.1,N
1602600375.9,286047003.1,N
1602600395.8,286047005.6,N
1602600415.6,286047004.4,N
1602600435.4,286047001.7,N
1602600455.3,286047003.0,N
1602600475.1,286047005.8,N
1602600495.9,286047004.9,N
1602600515.7,286047004.7,N
1602600535.5,286047005.0,N
1602600555.4,286047003.1,N
1602600575.2,286047004.9,N
1602600595.0,286047005.8,N
1602600596.0,286047005.8,N
1602600615.8,286047005.1,N
1602600635.6,286047004.8,N
1602600655.5,286047003.3,N
1602600675.3,286047005.9,Y
1602600695.1,286046999.7,P
1602600715.9,286046999.9,N
1602600735.7,286046999.9,N
1602600755.6,286047001.0,N
1602600775.4,286047000.5,N
1602600795.2,286047003.5,N
1602600815.1,286047003.6,N
1602600816.0,286047003.6,N
1602600835.8,286047001.3,N
1602600855.6,286047004.4,N
1602600875.5,286047001.9,N
1602600895.3,286047002.6,N
1602600915.2,286047001.5,N
1602600935.9,286047003.8,N
1602600955.7,286047003.8,N
1602600975.6,286047003.5,N
1602600995.4,286047003.7,N
1602601015.2,286047005.9,Y
1602601035.1,286047002.8,P
1602601036.0,286047002.8,P
1602601055.8,286047002.3,P
1602601075.7,286047002.3,Y
1602601095.5,286046999.5,P
1602601115.3,286047000.7,N
1602601135.2,286047001.4,N
1602601155.0,286047001.9,N
1602601155.9,286047001.9,N
1602601175.7,286047001.8,N
1602601195.6,286047001.5,N
